Location: Unspecified
(40.9074°N, 0.0000°E)
Time: 00:40:20
(UTC+00:00)

Meteor 1-27 - Visible Passes

Search period start: 05 April 2026 00:00
Search period end: 15 April 2026 00:00
Orbit: 836 x 891 km, 81.3° (Epoch: 28 March)

Date Brightness Start Highest point End Pass type
(mag) Time Alt. Az. Time Alt. Az. Time Alt. Az.
5 Apr 6.2 01:07:59 25° NNE 01:07:59 25° NNE 01:10:23 10° NNE visible
5 Apr 6.2 02:50:15 18° NW 02:50:15 18° NW 02:52:36 10° NNW visible
6 Apr 6.2 00:59:55 24° NNE 00:59:55 24° NNE 01:02:15 10° NNE visible
6 Apr 6.2 02:42:11 18° NW 02:42:11 18° NW 02:44:29 10° NNW visible
7 Apr 6.3 00:51:50 24° NNE 00:51:50 24° NNE 00:54:07 10° NNE visible
7 Apr 6.2 02:34:07 18° NW 02:34:07 18° NW 02:36:22 10° NNW visible
8 Apr 6.3 00:43:45 24° NNE 00:43:45 24° NNE 00:45:59 10° NNE visible
8 Apr 6.2 02:26:01 18° NW 02:26:01 18° NW 02:28:14 10° NNW visible
9 Apr 6.3 00:35:39 23° NNE 00:35:39 23° NNE 00:37:51 10° NNE visible
9 Apr 6.3 02:17:55 18° NW 02:17:55 18° NW 02:20:07 10° NNW visible
10 Apr 6.3 00:27:32 23° NNE 00:27:32 23° NNE 00:29:43 10° NNE visible
10 Apr 6.3 02:09:49 18° NW 02:09:49 18° NW 02:12:00 10° NNW visible
11 Apr 6.3 00:19:24 23° NNE 00:19:24 23° NNE 00:21:35 10° NNE visible
11 Apr 6.3 02:01:41 18° NW 02:01:41 18° NW 02:03:53 10° NNW visible
12 Apr 6.3 00:11:16 23° NNE 00:11:16 23° NNE 00:13:26 10° NNE visible
12 Apr 6.3 01:53:33 18° NW 01:53:33 18° NW 01:55:46 10° NNW visible
13 Apr 6.3 00:03:07 23° NNE 00:03:07 23° NNE 00:05:18 10° NNE visible
13 Apr 6.3 01:45:24 18° NW 01:45:24 18° NW 01:47:38 10° NNW visible
13 Apr 6.2 23:54:58 23° NNE 23:54:58 23° NNE 23:57:10 10° NNE visible
14 Apr 6.3 01:37:14 18° NW 01:37:14 18° NW 01:39:31 10° NNW visible
14 Apr 6.2 23:46:48 24° NNE 23:46:48 24° NNE 23:49:02 10° NNE visible
